This is the latest recevied weather packets stored in our database for station/object KD5KNZ-13. If no packets are shown the sender has not sent any weather packets the latest 10 day(s).
| Time | Temp. | Humidity | Pressure | Rain* | Wind** | Luminosity | Snow |
|---|---|---|---|---|---|---|---|
| 1777890652 | 9.44° C | 94% | 1017 hPa | 0 mm | - | - | - |
| 1777883445 | 10.56° C | 94% | 1017.1 hPa | 0 mm | - | - | - |
| 1777872647 | 12.22° C | 92% | 1018.2 hPa | 0 mm | - | - | - |
| 1777869041 | 13.33° C | 91% | 1018.5 hPa | 0 mm | - | - | - |
| 1777868136 | 13.33° C | 91% | 1018.6 hPa | 0 mm | - | - | - |
| 1777865444 | 13.89° C | 90% | 1018.5 hPa | 0 mm | - | - | - |
| 1777864545 | 13.89° C | 90% | 1018.6 hPa | 0 mm | - | - | - |
| 1777851947 | 21.67° C | 57% | 1017.4 hPa | 0 mm | - | - | - |
| 1777847454 | 23.33° C | 42% | 1017.4 hPa | 0 mm | - | - | - |
| 1777846548 | 23.89° C | 41% | 1017.6 hPa | 0 mm | - | - | - |
| 1777833955 | 24.44° C | 43% | 1020.7 hPa | 0 mm | - | - | - |
| 1777826740 | 23.33° C | 41% | 1021.9 hPa | 0 mm | - | - | - |
| 1777822251 | 20° C | 48% | 1022.6 hPa | 0.25 mm | - | - | - |
| 1777815954 | 12.78° C | 94% | 1021.9 hPa | 0 mm | - | - | - |
| 1777814145 | 11.11° C | 96% | 1021.6 hPa | 0 mm | - | - | - |
| 1777807846 | 7.78° C | 94% | 1020.7 hPa | 0 mm | - | - | - |
| 1777806040 | 7.78° C | 94% | 1020.2 hPa | 0 mm | - | - | - |
| 1777804246 | 7.78° C | 94% | 1020.3 hPa | 0 mm | - | - | - |
| 1777800647 | 8.33° C | 94% | 1019.9 hPa | 0 mm | - | - | - |
| 1777796175 | 8.33° C | 93% | 1019.5 hPa | 0 mm | - | - | - |
| 1777795261 | 8.89° C | 93% | 1019.4 hPa | 0 mm | - | - | - |
| 1777792549 | 9.44° C | 91% | 1019.3 hPa | 0 mm | - | - | - |
| 1777784442 | 12.22° C | 86% | 1019 hPa | 0 mm | - | - | - |
| 1777773649 | 13.33° C | 86% | 1017.9 hPa | 0 mm | - | - | - |
| 1777770946 | 15.56° C | 74% | 1017.4 hPa | 0 mm | - | - | - |
* Rain latest hour (hover to see other rain measurements)
** Current wind speed in m/s (hover to see current wind gust speed)